Location: Mt. Bigelow
(32.4165°N, 110.7345°W)
Time: 04:05:04
(UTC-07:00)

OTV 5 (USA 277) - Visible Passes

Search period start: 20 September 2017 00:00
Search period end: 30 September 2017 00:00
Orbit: 404 x 417 km, 43.0° (Epoch: 07 September)

Date Brightness Start Highest point End Pass type
(mag) Time Alt. Az. Time Alt. Az. Time Alt. Az.
20 Sep ? 04:05:17 21° NE 04:05:17 21° NE 04:06:34 10° NE visible
20 Sep ? 05:38:55 10° NW 05:41:05 16° NNW 05:43:16 10° NNE visible
21 Sep ? 04:49:27 19° NNW 04:49:51 20° NNW 04:52:21 10° NNE visible
22 Sep ? 04:00:50 14° NNE 04:00:50 14° NNE 04:01:28 10° NE visible
22 Sep ? 05:35:04 10° NNW 05:36:42 13° N 05:38:20 10° NNE visible
23 Sep ? 04:44:57 14° NNW 04:45:24 14° N 04:47:15 10° NNE visible
24 Sep ? 03:56:18 10° NNE 03:56:18 10° NNE 03:56:19 10° NNE visible
24 Sep ? 05:30:37 10° NNW 05:32:21 13° N 05:34:04 10° NE visible
25 Sep ? 04:40:25 12° N 04:41:03 13° N 04:42:39 10° NNE visible
26 Sep ? 05:25:35 10° NNW 05:27:56 18° NNE 05:30:17 10° ENE visible
27 Sep ? 04:36:02 14° N 04:36:40 15° N 04:38:42 10° NE visible
28 Sep ? 05:20:25 10° NW 05:23:23 31° NNE 05:26:21 10° E visible
29 Sep ? 04:31:56 23° N 04:32:12 23° NNE 04:34:53 10° ENE visible
